QPF
0.02 0.02 0.02 0.01 0.02 0.01 0.01 0.01 0.02 0.03 0.02 0.02 0.01 0.02 0.02 0.02 0.01 0.02 0.03 0.04 0.04 0.05 0.04 0.04 0.04 0.03 0.03 0.03 0.04 0.04 0.03 0.03 0.03 0.03 0.03 0.04 0.04 0.05 0.07 0.06 0.06 0.05 0.04 0.03 0.03 0.03 0.03 0.03 0.04
0.03 0.02 0.01 0.02 0.01 0.01 0.01 0.01 0.01 0.01 0.01 0.01 0.01 0.01 0.01 0.01 0.01 0.03 0.03 0.04 0.02 0.03 0.03 0.03 0.02 0.02 0.02 0.02 0.03 0.04 0.04 0.03 0.04 0.05 0.03 0.03 0.04 0.07 0.07 0.05 0.04 0.04 0.04 0.04 0.04 0.03 0.03 0.03 0.03
0.01 0.01 0.01 0.02 0.03 0.02 0.01 0.01 0.01 0.01 0.01 0.01 0.01 0.01 0.01 0.02 0.02 0.03 0.07 0.06 0.01 0.02 0.03 0.04 0.04 0.02 0.02 0.02 0.03 0.02 0.02 0.03 0.04 0.05 0.03 0.04 0.04 0.05 0.05 0.03 0.02 0.03 0.03 0.04 0.06 0.03 0.02 0.04 0.04
0.02 0.01 0.01 0.02 0.02 0.01 0.00 0.00 0.01 0.02 0.01 0.00 0.00 0.01 0.01 0.02 0.02 0.02 0.04 0.02 0.01 0.01 0.02 0.03 0.06 0.05 0.04 0.03 0.03 0.02 0.03 0.04 0.05 0.05 0.05 0.04 0.04 0.03 0.03 0.03 0.03 0.03 0.03 0.04 0.04 0.03 0.02 0.03 0.02
0.01 0.01 0.02 0.02 0.01 0.01 0.00 0.01 0.02 0.03 0.02 0.00 0.00 0.01 0.01 0.03 0.03 0.02 0.02 0.01 0.01 0.02 0.02 0.03 0.06 0.06 0.05 0.05 0.04 0.05 0.06 0.08 0.05 0.05 0.04 0.04 0.05 0.04 0.03 0.03 0.03 0.02 0.03 0.05 0.05 0.03 0.02 0.02 0.02
0.02 0.02 0.02 0.01 0.01 0.01 0.01 0.01 0.01 0.02 0.01 0.00 0.00 0.01 0.01 0.03 0.03 0.02 0.03 0.01 0.01 0.01 0.02 0.04 0.06 0.06 0.06 0.06 0.06 0.07 0.08 0.08 0.05 0.03 0.03 0.06 0.06 0.05 0.05 0.04 0.03 0.03 0.03 0.04 0.04 0.04 0.02 0.03 0.04
0.02 0.01 0.00 0.00 0.01 0.01 0.01 0.01 0.01 0.02 0.01 0.01 0.00 0.00 0.01 0.02 0.02 0.02 0.02 0.02 0.01 0.01 0.02 0.04 0.05 0.05 0.06 0.06 0.05 0.07 0.08 0.08 0.05 0.03 0.04 0.05 0.05 0.03 0.04 0.05 0.06 0.05 0.04 0.04 0.04 0.05 0.03 0.05 0.05
0.01 0.01 0.00 0.00 0.00 0.01 0.01 0.01 0.00 0.01 0.02 0.01 0.00 0.01 0.01 0.02 0.02 0.03 0.03 0.03 0.02 0.01 0.01 0.02 0.02 0.02 0.02 0.02 0.03 0.07 0.09 0.10 0.09 0.06 0.05 0.05 0.04 0.04 0.05 0.06 0.08 0.07 0.07 0.05 0.07 0.07 0.05 0.05 0.03
0.01 0.00 0.00 0.00 0.01 0.02 0.01 0.01 0.00 0.00 0.01 0.01 0.02 0.01 0.01 0.01 0.02 0.03 0.03 0.02 0.02 0.01 0.01 0.01 0.01 0.01 0.01 0.01 0.02 0.04 0.07 0.09 0.09 0.07 0.07 0.05 0.03 0.02 0.03 0.05 0.09 0.09 0.10 0.08 0.09 0.08 0.05 0.03 0.02
0.01 0.00 0.00 0.01 0.03 0.03 0.02 0.01 0.01 0.01 0.01 0.01 0.02 0.02 0.03 0.03 0.02 0.02 0.02 0.02 0.02 0.01 0.01 0.01 0.01 0.01 0.02 0.03 0.02 0.01 0.01 0.02 0.03 0.03 0.04 0.04 0.02 0.02 0.03 0.06 0.09 0.10 0.11 0.10 0.10 0.08 0.04 0.02 0.01
0.00 0.00 0.01 0.01 0.02 0.02 0.01 0.01 0.01 0.01 0.01 0.01 0.01 0.02 0.04 0.03 0.02 0.02 0.02 0.02 0.02 0.02 0.02 0.01 0.02 0.02 0.02 0.02 0.02 0.02 0.01 0.01 0.02 0.02 0.02 0.05 0.06 0.06 0.07 0.07 0.07 0.08 0.08 0.07 0.07 0.05 0.02 0.01 0.01
0.00 0.00 0.00 0.00 0.00 0.01 0.01 0.01 0.01 0.01 0.02 0.01 0.02 0.03 0.04 0.03 0.02 0.01 0.02 0.03 0.02 0.02 0.02 0.01 0.01 0.01 0.02 0.02 0.02 0.02 0.01 0.01 0.02 0.01 0.02 0.03 0.06 0.08 0.07 0.07 0.07 0.06 0.04 0.03 0.02 0.01 0.02 0.01 0.01
0.00 0.00 0.01 0.01 0.01 0.00 0.01 0.01 0.01 0.01 0.01 0.02 0.03 0.05 0.04 0.03 0.02 0.02 0.01 0.02 0.01 0.02 0.01 0.01 0.01 0.01 0.01 0.02 0.03 0.03 0.03 0.02 0.02 0.02 0.01 0.02 0.02 0.03 0.04 0.04 0.04 0.03 0.02 0.02 0.02 0.01 0.01 0.01 0.02
0.00 0.00 0.01 0.01 0.01 0.01 0.01 0.01 0.01 0.01 0.02 0.02 0.03 0.04 0.03 0.03 0.02 0.02 0.02 0.02 0.01 0.01 0.01 0.01 0.01 0.01 0.01 0.02 0.03 0.03 0.03 0.04 0.03 0.02 0.02 0.02 0.03 0.04 0.05 0.05 0.04 0.03 0.02 0.02 0.01 0.01 0.02 0.01 0.01
0.01 0.01 0.01 0.01 0.01 0.01 0.01 0.01 0.01 0.01 0.02 0.02 0.02 0.02 0.02 0.02 0.02 0.02 0.01 0.02 0.02 0.02 0.01 0.01 0.01 0.01 0.01 0.01 0.02 0.02 0.04 0.06 0.03 0.02 0.02 0.02 0.03 0.04 0.04 0.04 0.03 0.03 0.02 0.02 0.01 0.01 0.01 0.01 0.02
0.01 0.01 0.01 0.01 0.01 0.01 0.01 0.01 0.01 0.01 0.02 0.02 0.02 0.02 0.02 0.02 0.02 0.01 0.01 0.01 0.02 0.02 0.01 0.01 0.01 0.01 0.01 0.01 0.01 0.01 0.03 0.03 0.02 0.01 0.02 0.01 0.02 0.02 0.01 0.02 0.02 0.02 0.02 0.03 0.02 0.01 0.01 0.01 0.02
0.01 0.01 0.00 0.01 0.01 0.01 0.01 0.01 0.01 0.01 0.01 0.02 0.02 0.03 0.03 0.02 0.01 0.01 0.01 0.01 0.01 0.01 0.01 0.01 0.00 0.01 0.01 0.01 0.01 0.01 0.02 0.02 0.02 0.02 0.03 0.02 0.02 0.02 0.01 0.01 0.01 0.01 0.01 0.01 0.01 0.01 0.01 0.01 0.02
0.00 0.01 0.01 0.01 0.01 0.01 0.01 0.01 0.01 0.01 0.02 0.03 0.02 0.03 0.02 0.02 0.01 0.01 0.01 0.02 0.01 0.01 0.01 0.01 0.00 0.00 0.01 0.01 0.01 0.02 0.02 0.02 0.02 0.01 0.03 0.03 0.03 0.03 0.03 0.03 0.03 0.02 0.01 0.01 0.02 0.01 0.01 0.01 0.01
0.00 0.00 0.01 0.01 0.00 0.01 0.01 0.01 0.00 0.01 0.02 0.02 0.02 0.02 0.02 0.01 0.01 0.01 0.02 0.03 0.02 0.02 0.01 0.01 0.01 0.01 0.00 0.01 0.01 0.01 0.02 0.02 0.02 0.01 0.02 0.03 0.03 0.03 0.02 0.02 0.02 0.03 0.02 0.01 0.01 0.01 0.01 0.01 0.00
0.00 0.00 0.00 0.00 0.00 0.01 0.01 0.01 0.00 0.01 0.02 0.02 0.01 0.02 0.02 0.02 0.02 0.01 0.02 0.03 0.02 0.02 0.02 0.01 0.01 0.01 0.01 0.01 0.01 0.02 0.02 0.03 0.02 0.01 0.01 0.02 0.03 0.03 0.03 0.02 0.01 0.01 0.03 0.04 0.03 0.02 0.01 0.01 0.00
0.00 0.00 0.00 0.00 0.01 0.01 0.01 0.00 0.01 0.00 0.00 0.00 0.01 0.01 0.01 0.02 0.02 0.01 0.02 0.02 0.02 0.01 0.01 0.01 0.01 0.01 0.02 0.02 0.02 0.01 0.02 0.02 0.02 0.01 0.01 0.02 0.03 0.03 0.04 0.03 0.01 0.01 0.01 0.05 0.10 0.10 0.05 0.03 0.01
0.00 0.00 0.00 0.00 0.01 0.01 0.01 0.01 0.00 0.00 0.00 0.00 0.01 0.01 0.01 0.01 0.01 0.01 0.02 0.02 0.02 0.02 0.02 0.02 0.02 0.02 0.02 0.02 0.02 0.02 0.01 0.01 0.02 0.02 0.01 0.03 0.03 0.03 0.03 0.04 0.02 0.01 0.01 0.03 0.06 0.11 0.11 0.09 0.07
0.00 0.00 0.00 0.01 0.01 0.01 0.01 0.01 0.00 0.00 0.00 0.00 0.00 0.00 0.00 0.00 0.01 0.01 0.01 0.01 0.01 0.03 0.03 0.03 0.02 0.02 0.02 0.01 0.02 0.02 0.01 0.02 0.03 0.02 0.02 0.04 0.06 0.04 0.03 0.03 0.03 0.01 0.01 0.01 0.01 0.03 0.04 0.04 0.04
0.00 0.01 0.01 0.01 0.02 0.01 0.01 0.01 0.00 0.00 0.00 0.01 0.00 0.00 0.00 0.00 0.01 0.02 0.02 0.02 0.03 0.04 0.04 0.04 0.04 0.03 0.02 0.02 0.02 0.03 0.02 0.02 0.02 0.01 0.01 0.01 0.04 0.04 0.04 0.04 0.03 0.02 0.01 0.00 0.00 0.01 0.01 0.01 0.01
0.01 0.01 0.01 0.01 0.01 0.01 0.01 0.01 0.00 0.00 0.00 0.00 0.01 0.01 0.00 0.01 0.02 0.03 0.03 0.03 0.04 0.04 0.04 0.05 0.04 0.04 0.03 0.02 0.03 0.03 0.02 0.02 0.01 0.01 0.01 0.01 0.02 0.03 0.03 0.04 0.05 0.04 0.01 0.01 0.01 0.01 0.01 0.00 0.00
0.00 0.01 0.01 0.01 0.01 0.01 0.01 0.00 0.00 0.00 0.00 0.00 0.01 0.01 0.01 0.01 0.01 0.02 0.02 0.03 0.03 0.03 0.05 0.04 0.03 0.03 0.03 0.03 0.03 0.04 0.03 0.02 0.01 0.01 0.01 0.02 0.02 0.02 0.03 0.04 0.05 0.06 0.05 0.02 0.01 0.01 0.01 0.00 0.00
0.01 0.01 0.01 0.01 0.01 0.01 0.00 0.00 0.00 0.00 0.00 0.00 0.00 0.01 0.00 0.01 0.01 0.02 0.02 0.04 0.03 0.03 0.03 0.03 0.02 0.02 0.02 0.03 0.03 0.03 0.02 0.01 0.01 0.01 0.01 0.02 0.01 0.01 0.02 0.03 0.04 0.06 0.07 0.06 0.03 0.01 0.01 0.00 0.00
0.01 0.02 0.02 0.02 0.01 0.01 0.00 0.00 0.00 0.00 0.00 0.00 0.00 0.00 0.00 0.01 0.01 0.02 0.02 0.03 0.02 0.03 0.02 0.02 0.02 0.04 0.07 0.07 0.04 0.02 0.02 0.02 0.02 0.02 0.01 0.01 0.01 0.01 0.01 0.02 0.02 0.04 0.07 0.07 0.06 0.03 0.01 0.01 0.01
0.01 0.02 0.02 0.02 0.01 0.01 0.00 0.00 0.00 0.00 0.00 0.00 0.00 0.00 0.01 0.01 0.02 0.03 0.03 0.03 0.03 0.03 0.02 0.02 0.02 0.03 0.06 0.09 0.09 0.03 0.03 0.03 0.03 0.02 0.01 0.02 0.01 0.01 0.01 0.02 0.02 0.02 0.05 0.08 0.07 0.06 0.03 0.01 0.01
0.01 0.01 0.02 0.02 0.01 0.01 0.00 0.00 0.00 0.00 0.00 0.00 0.00 0.01 0.01 0.01 0.02 0.04 0.04 0.04 0.04 0.03 0.03 0.02 0.03 0.02 0.03 0.04 0.06 0.06 0.04 0.05 0.03 0.02 0.02 0.02 0.01 0.01 0.01 0.01 0.01 0.02 0.03 0.06 0.07 0.07 0.04 0.01 0.01
MSLP
1009.90 1010.92 1012.04 1013.08 1013.90 1014.39 1014.52 1014.34 1013.94 1013.47 1013.07 1012.83 1012.80 1012.95 1013.20 1013.43 1013.53 1013.45 1013.16 1012.71 1012.19 1011.68 1011.28 1011.04 1010.97 1011.02 1011.14 1011.25 1011.31 1011.30 1011.24 1011.19 1011.18 1011.26 1011.45 1011.73 1012.05 1012.38 1012.65 1012.84 1012.93 1012.97 1012.97 1012.99 1013.04 1013.13 1013.26 1013.41 1013.53
1010.40 1011.55 1012.72 1013.73 1014.45 1014.78 1014.71 1014.32 1013.73 1013.10 1012.58 1012.26 1012.19 1012.32 1012.56 1012.80 1012.93 1012.88 1012.65 1012.27 1011.83 1011.43 1011.13 1010.98 1010.99 1011.11 1011.26 1011.39 1011.46 1011.46 1011.40 1011.34 1011.34 1011.42 1011.62 1011.89 1012.21 1012.53 1012.78 1012.96 1013.05 1013.09 1013.10 1013.13 1013.19 1013.30 1013.44 1013.59 1013.72
1011.01 1012.24 1013.40 1014.34 1014.90 1015.05 1014.80 1014.23 1013.50 1012.76 1012.17 1011.82 1011.72 1011.84 1012.07 1012.30 1012.43 1012.40 1012.20 1011.88 1011.52 1011.21 1011.01 1010.96 1011.05 1011.22 1011.42 1011.57 1011.65 1011.65 1011.59 1011.53 1011.52 1011.60 1011.78 1012.03 1012.33 1012.61 1012.85 1013.01 1013.10 1013.15 1013.19 1013.25 1013.34 1013.48 1013.65 1013.82 1013.98
1011.72 1012.95 1014.04 1014.84 1015.23 1015.19 1014.77 1014.07 1013.25 1012.48 1011.88 1011.53 1011.45 1011.56 1011.78 1012.00 1012.11 1012.07 1011.89 1011.61 1011.31 1011.08 1010.97 1011.00 1011.16 1011.39 1011.61 1011.78 1011.87 1011.86 1011.80 1011.74 1011.72 1011.78 1011.94 1012.16 1012.42 1012.68 1012.89 1013.04 1013.15 1013.22 1013.30 1013.40 1013.55 1013.73 1013.94 1014.15 1014.34
1012.45 1013.62 1014.57 1015.18 1015.38 1015.16 1014.60 1013.82 1012.98 1012.22 1011.68 1011.38 1011.34 1011.48 1011.69 1011.89 1011.98 1011.92 1011.74 1011.50 1011.25 1011.08 1011.04 1011.14 1011.34 1011.60 1011.84 1012.01 1012.09 1012.08 1012.01 1011.94 1011.92 1011.97 1012.11 1012.31 1012.54 1012.77 1012.97 1013.12 1013.24 1013.35 1013.47 1013.63 1013.84 1014.07 1014.32 1014.56 1014.78
1013.12 1014.16 1014.92 1015.31 1015.31 1014.93 1014.27 1013.46 1012.65 1011.97 1011.52 1011.32 1011.35 1011.52 1011.74 1011.92 1011.99 1011.92 1011.75 1011.52 1011.32 1011.21 1011.22 1011.35 1011.58 1011.84 1012.07 1012.23 1012.29 1012.27 1012.20 1012.13 1012.11 1012.16 1012.30 1012.49 1012.71 1012.93 1013.12 1013.28 1013.42 1013.57 1013.74 1013.96 1014.21 1014.49 1014.78 1015.04 1015.28
1013.63 1014.49 1015.02 1015.19 1014.99 1014.47 1013.75 1012.96 1012.23 1011.67 1011.35 1011.27 1011.38 1011.60 1011.84 1012.02 1012.07 1012.00 1011.84 1011.64 1011.48 1011.42 1011.47 1011.62 1011.86 1012.10 1012.30 1012.43 1012.46 1012.43 1012.36 1012.30 1012.30 1012.37 1012.52 1012.72 1012.95 1013.17 1013.37 1013.54 1013.71 1013.89 1014.10 1014.36 1014.65 1014.96 1015.27 1015.55 1015.79
1013.92 1014.57 1014.87 1014.82 1014.44 1013.82 1013.08 1012.35 1011.73 1011.32 1011.14 1011.18 1011.37 1011.64 1011.90 1012.07 1012.13 1012.07 1011.93 1011.78 1011.67 1011.65 1011.73 1011.90 1012.12 1012.34 1012.50 1012.59 1012.60 1012.55 1012.49 1012.46 1012.49 1012.60 1012.78 1013.01 1013.25 1013.49 1013.70 1013.89 1014.08 1014.28 1014.52 1014.80 1015.12 1015.45 1015.77 1016.05 1016.29
1013.96 1014.40 1014.48 1014.24 1013.73 1013.06 1012.34 1011.69 1011.19 1010.92 1010.88 1011.02 1011.29 1011.59 1011.85 1012.03 1012.09 1012.05 1011.95 1011.85 1011.80 1011.84 1011.96 1012.14 1012.35 1012.54 1012.67 1012.73 1012.71 1012.66 1012.61 1012.61 1012.68 1012.84 1013.06 1013.33 1013.61 1013.87 1014.10 1014.31 1014.51 1014.72 1014.97 1015.27 1015.60 1015.94 1016.26 1016.55 1016.78
1013.78 1014.03 1013.93 1013.55 1012.96 1012.27 1011.60 1011.05 1010.68 1010.54 1010.60 1010.81 1011.11 1011.42 1011.68 1011.85 1011.91 1011.90 1011.85 1011.81 1011.83 1011.93 1012.10 1012.31 1012.52 1012.70 1012.80 1012.84 1012.81 1012.77 1012.74 1012.78 1012.89 1013.10 1013.37 1013.68 1013.99 1014.27 1014.52 1014.74 1014.95 1015.18 1015.44 1015.74 1016.08 1016.42 1016.76 1017.05 1017.28
1013.44 1013.53 1013.31 1012.84 1012.22 1011.57 1010.97 1010.53 1010.27 1010.22 1010.35 1010.59 1010.88 1011.17 1011.40 1011.54 1011.60 1011.61 1011.61 1011.65 1011.74 1011.91 1012.13 1012.38 1012.61 1012.79 1012.90 1012.93 1012.92 1012.89 1012.89 1012.96 1013.13 1013.37 1013.69 1014.03 1014.37 1014.68 1014.95 1015.18 1015.40 1015.64 1015.90 1016.21 1016.56 1016.93 1017.28 1017.59 1017.85
1013.03 1013.02 1012.72 1012.22 1011.63 1011.04 1010.53 1010.18 1010.01 1010.02 1010.16 1010.39 1010.64 1010.87 1011.04 1011.14 1011.19 1011.22 1011.26 1011.36 1011.53 1011.76 1012.05 1012.35 1012.61 1012.82 1012.96 1013.02 1013.03 1013.03 1013.07 1013.18 1013.38 1013.66 1014.00 1014.36 1014.73 1015.06 1015.35 1015.60 1015.84 1016.09 1016.37 1016.70 1017.07 1017.47 1017.86 1018.21 1018.51
1012.63 1012.56 1012.24 1011.77 1011.23 1010.72 1010.32 1010.05 1009.94 1009.96 1010.08 1010.25 1010.43 1010.57 1010.66 1010.71 1010.73 1010.77 1010.85 1010.99 1011.22 1011.52 1011.86 1012.21 1012.54 1012.79 1012.98 1013.09 1013.15 1013.20 1013.28 1013.42 1013.63 1013.93 1014.28 1014.66 1015.04 1015.40 1015.71 1015.99 1016.26 1016.54 1016.86 1017.22 1017.62 1018.06 1018.50 1018.91 1019.27
1012.34 1012.24 1011.94 1011.51 1011.06 1010.64 1010.32 1010.11 1010.02 1010.03 1010.09 1010.18 1010.25 1010.29 1010.30 1010.29 1010.28 1010.31 1010.40 1010.58 1010.85 1011.19 1011.59 1012.00 1012.38 1012.70 1012.95 1013.13 1013.26 1013.37 1013.49 1013.65 1013.88 1014.18 1014.53 1014.91 1015.30 1015.67 1016.02 1016.34 1016.66 1016.98 1017.34 1017.74 1018.19 1018.68 1019.18 1019.66 1020.09
1012.18 1012.07 1011.80 1011.44 1011.07 1010.74 1010.48 1010.31 1010.21 1010.17 1010.15 1010.13 1010.09 1010.04 1009.96 1009.89 1009.85 1009.87 1009.97 1010.16 1010.45 1010.82 1011.25 1011.70 1012.15 1012.54 1012.88 1013.14 1013.35 1013.52 1013.68 1013.87 1014.10 1014.38 1014.72 1015.09 1015.48 1015.88 1016.27 1016.64 1017.01 1017.39 1017.81 1018.26 1018.76 1019.29 1019.85 1020.39 1020.90
1012.14 1012.04 1011.80 1011.52 1011.22 1010.96 1010.75 1010.58 1010.44 1010.32 1010.20 1010.06 1009.92 1009.77 1009.62 1009.51 1009.45 1009.45 1009.55 1009.74 1010.03 1010.41 1010.86 1011.35 1011.84 1012.31 1012.73 1013.09 1013.38 1013.62 1013.83 1014.04 1014.26 1014.53 1014.84 1015.20 1015.59 1016.01 1016.44 1016.87 1017.31 1017.75 1018.22 1018.73 1019.27 1019.84 1020.44 1021.04 1021.61
1012.17 1012.07 1011.89 1011.67 1011.45 1011.24 1011.04 1010.85 1010.65 1010.42 1010.18 1009.93 1009.68 1009.44 1009.24 1009.10 1009.02 1009.03 1009.12 1009.31 1009.59 1009.97 1010.42 1010.93 1011.47 1012.00 1012.51 1012.96 1013.34 1013.66 1013.91 1014.14 1014.36 1014.60 1014.88 1015.23 1015.62 1016.06 1016.53 1017.02 1017.53 1018.04 1018.56 1019.11 1019.68 1020.27 1020.90 1021.54 1022.16
1012.19 1012.12 1011.99 1011.85 1011.70 1011.53 1011.33 1011.09 1010.79 1010.44 1010.07 1009.68 1009.32 1009.01 1008.77 1008.61 1008.53 1008.55 1008.65 1008.83 1009.11 1009.47 1009.92 1010.44 1011.02 1011.62 1012.21 1012.75 1013.22 1013.61 1013.92 1014.16 1014.38 1014.60 1014.86 1015.18 1015.57 1016.03 1016.54 1017.10 1017.66 1018.23 1018.81 1019.38 1019.96 1020.57 1021.20 1021.85 1022.51
1012.11 1012.09 1012.05 1012.01 1011.93 1011.80 1011.59 1011.28 1010.87 1010.37 1009.84 1009.31 1008.83 1008.45 1008.16 1008.00 1007.94 1007.97 1008.09 1008.29 1008.56 1008.92 1009.37 1009.90 1010.51 1011.17 1011.83 1012.46 1013.02 1013.48 1013.84 1014.11 1014.33 1014.53 1014.77 1015.07 1015.46 1015.93 1016.49 1017.09 1017.72 1018.34 1018.95 1019.54 1020.12 1020.71 1021.33 1021.97 1022.65
1011.85 1011.93 1012.03 1012.11 1012.14 1012.06 1011.83 1011.44 1010.90 1010.23 1009.52 1008.83 1008.22 1007.74 1007.41 1007.24 1007.20 1007.27 1007.43 1007.65 1007.94 1008.31 1008.76 1009.31 1009.96 1010.67 1011.40 1012.11 1012.75 1013.29 1013.70 1014.00 1014.22 1014.42 1014.63 1014.92 1015.30 1015.80 1016.38 1017.03 1017.70 1018.37 1019.01 1019.61 1020.18 1020.74 1021.32 1021.95 1022.62
1011.36 1011.61 1011.89 1012.14 1012.30 1012.29 1012.06 1011.58 1010.90 1010.05 1009.14 1008.26 1007.50 1006.91 1006.53 1006.35 1006.34 1006.46 1006.66 1006.93 1007.25 1007.65 1008.13 1008.70 1009.38 1010.14 1010.93 1011.72 1012.43 1013.04 1013.50 1013.84 1014.08 1014.27 1014.48 1014.75 1015.14 1015.64 1016.25 1016.94 1017.65 1018.35 1019.01 1019.61 1020.17 1020.70 1021.24 1021.82 1022.47
1010.66 1011.12 1011.62 1012.08 1012.40 1012.48 1012.25 1011.70 1010.87 1009.83 1008.71 1007.64 1006.71 1006.01 1005.57 1005.38 1005.39 1005.56 1005.83 1006.17 1006.55 1006.99 1007.50 1008.11 1008.82 1009.62 1010.46 1011.31 1012.09 1012.75 1013.27 1013.65 1013.91 1014.11 1014.32 1014.59 1014.97 1015.48 1016.11 1016.83 1017.58 1018.31 1018.99 1019.60 1020.13 1020.63 1021.12 1021.65 1022.25
1009.77 1010.47 1011.23 1011.92 1012.41 1012.59 1012.38 1011.76 1010.80 1009.59 1008.27 1007.01 1005.92 1005.11 1004.60 1004.40 1004.44 1004.68 1005.02 1005.43 1005.88 1006.37 1006.93 1007.57 1008.31 1009.14 1010.02 1010.91 1011.73 1012.45 1013.01 1013.43 1013.72 1013.94 1014.16 1014.43 1014.82 1015.34 1015.99 1016.73 1017.51 1018.27 1018.97 1019.58 1020.10 1020.56 1021.00 1021.48 1022.02
1008.79 1009.72 1010.72 1011.62 1012.28 1012.56 1012.37 1011.71 1010.64 1009.28 1007.80 1006.38 1005.17 1004.26 1003.71 1003.50 1003.58 1003.88 1004.30 1004.79 1005.32 1005.87 1006.46 1007.13 1007.89 1008.73 1009.62 1010.53 1011.38 1012.13 1012.74 1013.19 1013.52 1013.76 1014.00 1014.29 1014.68 1015.22 1015.88 1016.64 1017.44 1018.22 1018.94 1019.56 1020.07 1020.51 1020.91 1021.32 1021.80
1007.80 1008.92 1010.11 1011.18 1011.97 1012.32 1012.16 1011.48 1010.34 1008.88 1007.30 1005.78 1004.48 1003.52 1002.96 1002.76 1002.90 1003.26 1003.76 1004.32 1004.91 1005.51 1006.14 1006.81 1007.56 1008.40 1009.28 1010.18 1011.05 1011.81 1012.45 1012.93 1013.29 1013.57 1013.83 1014.14 1014.55 1015.09 1015.76 1016.54 1017.35 1018.16 1018.89 1019.52 1020.04 1020.46 1020.82 1021.18 1021.59
1006.91 1008.13 1009.42 1010.58 1011.43 1011.83 1011.69 1011.00 1009.83 1008.35 1006.73 1005.19 1003.89 1002.94 1002.40 1002.25 1002.45 1002.88 1003.44 1004.07 1004.70 1005.32 1005.96 1006.62 1007.35 1008.14 1009.00 1009.87 1010.72 1011.49 1012.14 1012.65 1013.04 1013.35 1013.64 1013.97 1014.40 1014.95 1015.63 1016.41 1017.23 1018.05 1018.80 1019.45 1019.98 1020.39 1020.74 1021.05 1021.40
1006.19 1007.40 1008.68 1009.82 1010.67 1011.06 1010.91 1010.23 1009.10 1007.65 1006.10 1004.62 1003.39 1002.52 1002.06 1001.99 1002.25 1002.74 1003.36 1004.02 1004.67 1005.29 1005.91 1006.54 1007.21 1007.96 1008.76 1009.59 1010.40 1011.16 1011.81 1012.35 1012.77 1013.11 1013.43 1013.78 1014.22 1014.78 1015.45 1016.23 1017.06 1017.88 1018.64 1019.31 1019.85 1020.28 1020.62 1020.92 1021.23
1005.68 1006.76 1007.91 1008.94 1009.69 1010.02 1009.86 1009.21 1008.15 1006.81 1005.39 1004.07 1002.99 1002.26 1001.92 1001.95 1002.28 1002.82 1003.47 1004.13 1004.77 1005.37 1005.94 1006.51 1007.13 1007.80 1008.54 1009.31 1010.09 1010.83 1011.48 1012.03 1012.47 1012.85 1013.20 1013.57 1014.02 1014.57 1015.23 1015.99 1016.81 1017.63 1018.40 1019.08 1019.65 1020.10 1020.46 1020.77 1021.06
1005.39 1006.25 1007.16 1007.99 1008.56 1008.78 1008.59 1007.98 1007.03 1005.87 1004.65 1003.55 1002.69 1002.14 1001.95 1002.09 1002.48 1003.05 1003.69 1004.33 1004.92 1005.47 1005.98 1006.49 1007.04 1007.65 1008.33 1009.05 1009.79 1010.50 1011.15 1011.71 1012.18 1012.58 1012.95 1013.34 1013.78 1014.32 1014.96 1015.70 1016.49 1017.29 1018.06 1018.76 1019.35 1019.84 1020.24 1020.58 1020.89
1005.30 1005.86 1006.47 1007.02 1007.38 1007.46 1007.22 1006.66 1005.85 1004.89 1003.93 1003.08 1002.46 1002.12 1002.08 1002.31 1002.75 1003.31 1003.91 1004.50 1005.03 1005.51 1005.95 1006.40 1006.90 1007.46 1008.09 1008.79 1009.50 1010.20 1010.85 1011.42 1011.91 1012.33 1012.71 1013.10 1013.54 1014.06 1014.67 1015.36 1016.12 1016.90 1017.65 1018.36 1018.98 1019.51 1019.96 1020.35 1020.71
Thickness
5793 5793 5790 5777 5753 5732 5727 5737 5744 5746 5749 5757 5760 5756 5749 5744 5739 5736 5756 5764 5765 5764 5764 5764 5764 5763 5763 5763 5762 5762 5762 5762 5762 5761 5761 5761 5760 5760 5760 5759 5759 5759 5759 5759 5759 5759 5759 5759 5759
5792 5790 5780 5761 5734 5716 5724 5739 5742 5749 5756 5760 5760 5755 5749 5746 5752 5753 5758 5762 5763 5763 5762 5762 5761 5761 5761 5760 5760 5759 5759 5759 5758 5758 5758 5757 5757 5757 5756 5756 5755 5755 5756 5756 5756 5756 5755 5755 5755
5791 5786 5765 5745 5728 5719 5728 5741 5746 5754 5760 5759 5753 5753 5749 5747 5753 5755 5760 5762 5762 5761 5760 5759 5758 5758 5757 5757 5757 5756 5756 5755 5755 5755 5755 5754 5753 5753 5753 5752 5752 5752 5752 5752 5752 5752 5752 5752 5751
5784 5770 5756 5736 5727 5733 5739 5746 5751 5751 5756 5757 5752 5745 5749 5756 5757 5759 5761 5761 5759 5758 5757 5756 5755 5755 5754 5754 5754 5753 5753 5752 5752 5752 5751 5751 5750 5749 5749 5749 5748 5748 5748 5748 5748 5748 5748 5748 5748
5776 5756 5737 5725 5729 5738 5746 5752 5753 5749 5749 5751 5749 5740 5742 5754 5759 5759 5759 5757 5755 5755 5754 5753 5753 5752 5751 5751 5751 5751 5750 5750 5749 5749 5748 5747 5747 5746 5746 5745 5745 5745 5744 5744 5744 5744 5744 5744 5744
5757 5744 5722 5716 5727 5739 5747 5753 5752 5748 5747 5749 5746 5739 5740 5752 5754 5755 5755 5754 5753 5752 5751 5750 5750 5749 5749 5748 5748 5747 5747 5747 5746 5746 5745 5744 5744 5743 5742 5742 5741 5741 5741 5741 5740 5739 5740 5740 5740
5749 5734 5723 5723 5725 5734 5746 5754 5749 5746 5744 5746 5748 5737 5739 5746 5751 5753 5752 5751 5750 5749 5748 5747 5746 5746 5745 5745 5744 5744 5743 5743 5743 5742 5741 5741 5740 5739 5739 5738 5738 5738 5738 5737 5736 5735 5735 5736 5735
5754 5736 5725 5723 5725 5732 5747 5752 5752 5748 5745 5753 5751 5737 5735 5744 5750 5750 5748 5747 5746 5745 5744 5743 5742 5742 5741 5741 5740 5740 5739 5739 5738 5738 5737 5736 5736 5735 5735 5734 5734 5734 5734 5733 5732 5731 5731 5731 5731
5756 5728 5718 5725 5728 5735 5747 5747 5750 5755 5750 5748 5749 5746 5747 5749 5747 5744 5741 5740 5740 5741 5741 5740 5739 5739 5738 5737 5736 5736 5735 5734 5734 5733 5733 5732 5731 5730 5730 5730 5730 5730 5729 5729 5728 5727 5727 5727 5727
5745 5723 5729 5739 5741 5742 5745 5745 5746 5745 5740 5739 5741 5745 5747 5745 5741 5738 5735 5734 5734 5735 5736 5737 5736 5735 5734 5733 5732 5731 5731 5730 5729 5728 5727 5727 5726 5725 5725 5725 5725 5725 5724 5724 5723 5722 5722 5722 5722
5745 5733 5740 5745 5748 5748 5745 5744 5747 5739 5733 5737 5738 5739 5740 5738 5737 5734 5733 5732 5732 5732 5733 5733 5732 5731 5730 5729 5728 5727 5726 5725 5724 5724 5722 5721 5721 5720 5720 5719 5719 5719 5719 5718 5717 5717 5717 5717 5717
5742 5742 5745 5747 5751 5748 5744 5742 5740 5738 5738 5746 5745 5742 5738 5734 5733 5732 5731 5730 5730 5729 5729 5730 5729 5728 5726 5725 5724 5722 5722 5721 5720 5719 5718 5717 5715 5715 5714 5714 5714 5714 5713 5713 5712 5711 5711 5711 5711
5740 5741 5746 5748 5748 5745 5743 5738 5737 5736 5743 5745 5743 5739 5734 5732 5731 5731 5731 5730 5728 5726 5726 5726 5725 5724 5722 5721 5720 5718 5717 5716 5715 5714 5713 5712 5711 5709 5709 5708 5708 5708 5708 5707 5706 5706 5706 5706 5706
5741 5741 5741 5743 5743 5743 5736 5734 5734 5733 5739 5739 5736 5733 5732 5730 5729 5728 5727 5725 5725 5724 5723 5723 5722 5720 5718 5717 5716 5714 5713 5712 5711 5710 5709 5708 5707 5706 5704 5703 5703 5703 5702 5702 5701 5701 5701 5701 5701
5742 5734 5732 5736 5738 5738 5734 5723 5726 5733 5734 5731 5730 5729 5728 5727 5727 5726 5725 5724 5723 5722 5721 5720 5719 5717 5715 5714 5712 5711 5710 5709 5707 5706 5705 5704 5703 5701 5700 5699 5698 5698 5698 5697 5697 5696 5696 5696 5695
5732 5721 5713 5727 5733 5735 5726 5709 5725 5731 5728 5724 5724 5724 5723 5723 5724 5725 5724 5723 5722 5720 5718 5717 5717 5714 5712 5710 5709 5707 5706 5705 5704 5702 5702 5701 5699 5698 5696 5695 5694 5694 5693 5692 5691 5690 5689 5689 5688
5712 5704 5706 5716 5729 5728 5720 5711 5722 5728 5725 5720 5719 5719 5718 5718 5720 5722 5722 5721 5720 5718 5716 5714 5712 5710 5709 5707 5705 5704 5703 5701 5700 5699 5697 5696 5695 5694 5693 5691 5690 5689 5689 5688 5687 5685 5684 5683 5682
5701 5702 5704 5707 5720 5720 5712 5711 5719 5723 5721 5717 5716 5715 5714 5715 5717 5720 5720 5719 5717 5715 5714 5711 5709 5707 5705 5703 5701 5699 5698 5696 5695 5694 5693 5692 5691 5690 5689 5687 5686 5685 5684 5682 5681 5680 5679 5677 5677
5711 5705 5702 5708 5719 5714 5708 5708 5713 5718 5716 5713 5712 5712 5712 5714 5718 5718 5717 5715 5714 5712 5710 5708 5706 5704 5702 5699 5696 5693 5691 5690 5690 5689 5689 5688 5687 5686 5685 5683 5682 5681 5679 5678 5676 5675 5673 5671 5671
5709 5701 5700 5706 5716 5711 5703 5703 5710 5713 5713 5714 5712 5711 5711 5712 5712 5713 5713 5711 5710 5709 5707 5705 5703 5701 5699 5697 5694 5691 5688 5686 5685 5684 5684 5684 5683 5682 5681 5679 5677 5676 5675 5673 5672 5670 5667 5665 5666
5705 5701 5700 5700 5706 5705 5701 5695 5701 5709 5713 5714 5713 5712 5712 5711 5710 5709 5709 5708 5707 5705 5704 5703 5701 5699 5697 5694 5691 5687 5684 5682 5680 5679 5679 5679 5679 5678 5677 5675 5673 5672 5671 5669 5667 5666 5664 5661 5660
5697 5710 5707 5702 5691 5683 5691 5674 5693 5700 5704 5708 5709 5709 5709 5710 5710 5708 5707 5705 5704 5704 5702 5700 5698 5696 5694 5691 5688 5684 5679 5676 5675 5674 5674 5674 5674 5673 5672 5671 5669 5668 5666 5665 5664 5663 5661 5659 5656
5706 5712 5705 5698 5688 5678 5681 5672 5682 5695 5696 5703 5707 5708 5709 5709 5709 5707 5706 5705 5704 5702 5700 5698 5695 5692 5690 5688 5685 5681 5677 5673 5671 5670 5669 5669 5669 5668 5667 5666 5665 5663 5662 5661 5660 5659 5658 5656 5653
5710 5700 5690 5680 5674 5664 5674 5668 5674 5685 5695 5703 5707 5708 5707 5707 5707 5705 5705 5703 5701 5699 5696 5694 5691 5688 5686 5684 5681 5678 5673 5670 5667 5665 5664 5663 5663 5663 5662 5662 5661 5660 5658 5657 5656 5655 5654 5652 5650
5700 5680 5661 5658 5650 5655 5671 5668 5675 5695 5701 5704 5706 5706 5706 5705 5703 5701 5700 5698 5696 5694 5693 5690 5688 5684 5682 5680 5677 5674 5670 5667 5664 5662 5660 5658 5657 5657 5657 5657 5656 5655 5655 5654 5653 5651 5649 5648 5647
5691 5682 5659 5650 5646 5652 5665 5663 5680 5697 5702 5705 5705 5704 5703 5701 5700 5699 5698 5696 5693 5692 5689 5687 5684 5681 5678 5676 5673 5670 5667 5664 5661 5659 5657 5655 5654 5653 5653 5652 5652 5652 5651 5650 5649 5647 5646 5644 5643
5686 5677 5678 5659 5653 5647 5654 5666 5683 5695 5697 5698 5698 5698 5697 5697 5697 5696 5695 5692 5690 5688 5686 5684 5681 5678 5675 5672 5669 5666 5664 5661 5658 5657 5655 5653 5652 5651 5649 5648 5647 5647 5647 5646 5645 5643 5641 5640 5638
5692 5679 5664 5654 5643 5639 5650 5656 5665 5681 5687 5690 5691 5691 5692 5692 5691 5691 5690 5688 5686 5685 5683 5680 5678 5675 5672 5669 5666 5663 5660 5658 5656 5654 5651 5650 5648 5647 5645 5644 5643 5642 5642 5641 5640 5639 5638 5636 5634
5679 5672 5661 5650 5648 5638 5637 5652 5681 5684 5687 5686 5687 5688 5689 5688 5686 5686 5685 5684 5683 5680 5678 5675 5673 5670 5667 5665 5662 5659 5657 5654 5652 5650 5648 5646 5645 5643 5642 5640 5639 5638 5637 5636 5635 5634 5634 5632 5630
5682 5674 5662 5651 5646 5641 5637 5652 5687 5685 5686 5685 5684 5685 5685 5684 5683 5682 5681 5679 5677 5674 5672 5671 5668 5666 5664 5661 5658 5655 5653 5651 5648 5646 5644 5643 5641 5640 5638 5637 5635 5634 5633 5632 5631 5630 5629 5628 5626